www.pogodaiklimat.ru

Погода и климат >> Архив погоды >> Сербия >> Vrsac


ПОГОДА в Vrsac

  • Прогноз погоды в Vrsac
  • Монитор погоды в Vrsac
  • Климат города

АРХИВ ПОГОДЫ в Vrsac

Время (UTC), дата Ветер
(напр.,м/с)
 
Видим.   Явления Облачность Т
(С)
Тd
(С)
f
(%)
Тe
(С)
Тes
(С)
Комфортность P
(гПа)
Po
(гПа)
Тmin
(С)
Tmax
(С)
R
(мм)
R24
(мм)
S
(см)
14 11.10 Ю 7 30 км 1/0
[Ac trans]
+22.4 +6.3 35 +23 +24 комфорт 1023.6 1013.8
13 11.10 ЮВ 6 30 км 3/0
[Ac trans]
+23.0 +6.3 34 +24 +25 комфорт 1023.9 1014.1
15 11.10 ЮВ 8
{12}
30 км ясно +21.1 +6.5 39 +22 +22 комфорт 1023.8 1013.9
16 11.10 ЮВ 8 20 км ясно +19.8 +6.2 41 +20 +20 1023.5 1013.6
17 11.10 ЮВ 8 20 км ясно +19.8 +5.8 40 +20 +20 1023.9 1014.0
18 11.10 ЮВ 7 20 км ясно +18.0 +6.1 46 +17 +17 1024.8 1014.6 +23.8
20 11.10 ЮВ 8 20 км ясно +18.3 +6.7 47 +18 +18 1025.2 1015.0
19 11.10 ЮВ 6 20 км ясно +18.8 +6.6 45 +19 +19 1025.0 1014.8
21 11.10 ЮВ 8
{14}
20 км ясно +17.8 +7.1 49 +17 +17 1025.4 1015.2
22 11.10 ЮВ 9 20 км ясно +17.3 +7.1 51 +16 +16 1025.5 1015.3
23 11.10 ЮВ 10 20 км ясно +17.7 +7.6 52 +16 +16 1025.6 1015.4
00 12.10 ЮВ 9-15
{18}
20 км ясно +17.9 +7.6 51 +17 +17 1025.6 1015.4
01 12.10 В 1 20 км ясно +15.6 +7.4 58 +16 +16 1026.0 1015.7
03 12.10 ЮВ 5 20 км ясно +17.1 +7.6 54 +16 +16 1025.9 1015.6
04 12.10 В 3 20 км ясно +13.2 +6.9 66 +12 +12 1026.6 1016.3
05 12.10 СЗ 1 20 км ясно +8.4 +5.4 81 +8 +8 1027.2 1016.6
06 12.10 СВ 1 10 км ясно +10.9 +6.8 76 +11 +11 1027.9 1017.4 +8.1
07 12.10 ЮВ 4 15 км ясно +18.1 +7.7 51 +18 +19 1028.1 1017.8
08 12.10 ЮВ 4 10 км ясно +20.2 +7.8 45 +21 +24 комфорт 1028.3 1018.1
09 12.10 ЮВ 5
{14}
15 км ясно +21.1 +7.9 43 +22 +25 комфорт 1028.4 1018.2
10 12.10 ЮВ 4 15 км ясно +22.3 +7.9 40 +23 +28 комфорт 1028.3 1018.2
11 12.10 ЮВ 2 15 км 1/1 900 м
[Cu hum]
+23.2 +7.6 37 +24 +31 комфорт 1027.7 1017.6
12 12.10 С 2
{13}
15 км 1/1 900 м
[Cu hum]
+23.4 +7.1 35 +24 +30 комфорт 1027.1 1017.1
13 12.10 СВ 2 15 км 1/1 900 м
[Cu hum]
+23.8 +7.2 34 +24 +28 комфорт 1026.8 1016.8
14 12.10 СВ 2 15 км ясно +23.5 +7.8 37 +24 +26 комфорт 1026.6 1016.5
15 12.10 С 2 15 км ясно +22.3 +7.7 39 +23 +24 комфорт 1026.6 1016.6
16 12.10 СВ 2 15 км ясно +19.0 +7.8 48 +20 +20 1027.1 1016.9
17 12.10 ЮВ 1 15 км ясно +16.9 +7.3 53 +18 +18 1027.8 1017.5
18 12.10 штиль 0 15 км ясно +14.0 +5.2 55 +14 +14 1027.9 1017.7 +24.2
19 12.10 штиль 0 15 км ясно +10.8 +6.3 74 +10 +10 1028.3 1018.0
20 12.10 СВ 2 15 км ясно +12.3 +6.1 66 +12 +12 1028.7 1018.5
21 12.10 штиль 0 15 км ясно +9.7 +6.0 78 +9 +9 1029.1 1018.6
22 12.10 СВ 1 15 км ясно +8.5 +4.8 78 +8 +8 1029.0 1018.6
23 12.10 СВ 1 15 км ясно +8.5 +5.2 80 +8 +8 1028.9 1018.5
00 13.10 СВ 2 15 км ясно +8.4 +5.7 83 +7 +7 1029.1 1018.5
01 13.10 ЮВ 4 15 км ясно +16.6 +7.0 53 +16 +16 1028.6 1018.3
02 13.10 СВ 1 15 км ясно +15.5 +6.3 54 +16 +16 1028.5 1018.2
03 13.10 З 1 15 км ясно +15.1 +5.5 53 +16 +16 1028.6 1018.2
04 13.10 З 1 15 км ясно +13.2 +5.3 59 +14 +14 1028.7 1018.5
05 13.10 штиль 0 15 км 1/0
[Ac trans]
+13.3 +4.5 55 +13 +13 1028.6 1018.4
06 13.10 штиль 0 15 км 3/0
[Ac trans]
+10.3 +4.6 68 +10 +10 1029.6 1019.0 +6.1
07 13.10 СЗ 1 15 км 3/0
[Ac trans]
+14.2 +6.4 59 +15 +17 1029.6 1019.2
08 13.10 ЮВ 5 15 км ясно +20.0 +7.1 43 +21 +23 комфорт 1029.1 1019.0
09 13.10 ЮВ 4 20 км ясно +21.5 +7.1 39 +22 +26 комфорт 1028.8 1018.7
10 13.10 Ю 2 20 км ясно +22.1 +6.9 37 +23 +30 комфорт 1028.9 1018.8
11 13.10 штиль 0 20 км ясно +23.1 +6.7 35 +24 +33 комфорт 1028.1 1018.0
12 13.10 СЗ 1 20 км ясно +23.3 +6.5 34 +24 +31 комфорт 1027.4 1017.4
13 13.10 Ю 1 20 км 3/0
[Ci fib]
+23.7 +6.4 33 +24 +29 комфорт 1026.7 1016.7
14 13.10 СВ 1 20 км 3/0
[Ci fib]
+24.5 +6.6 32 +25 +27 комфорт 1026.4 1016.4
15 13.10 Ю 2 20 км 5/0
[Ci fib]
+22.2 +7.1 38 +23 +24 комфорт 1026.4 1016.3
16 13.10 Ю 2 20 км 5/0
[Ci fib]
+19.9 +7.0 43 +21 +21 комфорт 1026.6 1016.5
17 13.10 ЮЗ 2 20 км 5/0
[Ci fib]
+18.4 +7.2 48 +19 +19 1026.8 1016.6
18 13.10 ЮВ 5 20 км 5/0
[Cs]
+18.0 +7.1 49 +18 +18 1026.9 1016.6 +25.3
19 13.10 ЮВ 7 20 км 5/0
[Cs]
+18.3 +7.1 48 +18 +18 1026.7 1016.5
20 13.10 ЮВ 6 20 км 3/0
[Ci fib]
+17.9 +6.5 47 +17 +17 1026.6 1016.4
21 13.10 ЮВ 3 20 км 3/0
[Ci fib]
+16.6 +6.0 50 +16 +16 1026.6 1016.4
22 13.10 ЮВ 2 20 км 3/0
[Ci fib]
+16.1 +5.3 49 +16 +16 1026.8 1016.5
23 13.10 ЮВ 5 20 км 3/0
[Ci fib]
+17.3 +3.9 41 +17 +17 1026.7 1016.4
00 14.10 ЮВ 5 20 км ясно +17.2 +2.1 36 +17 +17 1027.1 1016.8
01 14.10 ЮВ 6 20 км ясно +17.2 -0.7 30 +16 +16 1026.9 1016.6
02 14.10 ЮВ 7 20 км ясно +16.7 -2.0 28 +16 +16 1026.7 1016.4
03 14.10 ЮВ 4
{15}
20 км ясно +16.0 -2.6 28 +15 +15 1026.7 1016.4
04 14.10 С 1 20 км ясно +15.1 -2.8 29 +16 +16 1026.6 1016.2
05 14.10 ЮВ 8 20 км ясно +15.3 -3.2 28 +14 +14 1026.2 1015.8
06 14.10 ЮВ 6
{12}
20 км ясно +16.1 -4.3 24 +15 +15 1026.1 1015.8 +12.4
07 14.10 ЮВ 9 20 км ясно +17.6 -3.7 23 +16 +17 1026.1 1015.9
08 14.10 ЮВ 7 20 км ясно +19.0 -2.4 23 +18 +19 1026.2 1016.0
09 14.10 ЮВ 5
{14}
20 км ясно +20.3 -3.2 20 +20 +23 1026.0 1015.8
10 14.10 Ю 7 20 км ясно +21.7 -2.9 19 +21 +23 комфорт 1025.7 1015.5
11 14.10 Ю 6 20 км ясно +22.2 -4.3 17 +21 +24 комфорт 1025.2 1015.1
12 14.10 ЮВ 6-16
{17}
20 км 1/0
[Ci fib]
+22.6 -3.1 18 +21 +24 комфорт 1024.5 1014.4
13 14.10 ЮВ 6 20 км 3/0
[Ci fib]
+22.0 -3.0 19 +21 +22 комфорт 1024.1 1014.0
14 14.10 ЮВ 5 20 км 4/0
[Ci fib]
+21.7 -3.5 18 +21 +22 комфорт 1024.1 1014.0
15 14.10 ЮВ 9
{15}
20 км 4/0
[Ci fib]
+20.4 -3.7 19 +19 +19 1023.7 1013.5
16 14.10 ЮВ 8 20 км 3/0
[Ci fib]
+18.6 -3.0 23 +18 +18 1023.8 1013.6
17 14.10 ЮВ 7 15 км 3/0
[Ci fib]
+18.7 -3.1 23 +18 +18 1024.3 1014.1
18 14.10 ЮВ 1 15 км 3/0
[Ci fib]
+16.4 -3.0 26 +17 +17 1024.5 1014.2 +23.4
19 14.10 ЮВ 4 15 км 3/0
[Ci fib]
+18.5 -3.7 22 +18 +18 1024.1 1013.9
20 14.10 ЮВ 7 15 км 3/0
[Ci fib]
+18.1 -3.2 23 +17 +17 1023.9 1013.7
21 14.10 В 2 15 км 3/0
[Ci fib]
+17.7 -2.7 25 +18 +18 1024.1 1013.9
22 14.10 Ю 4 15 км 3/0
[Ci fib]
+17.8 -1.6 27 +18 +18 1024.0 1013.8
23 14.10 ЮВ 8 15 км 3/0
[Ci fib]
+17.8 -0.8 28 +17 +17 1024.0 1013.8
00 15.10 В 3
{11}
15 км 3/0
[Ci fib]
+17.6 +0.1 31 +18 +18 1024.5 1014.2
01 15.10 ЮВ 1 15 км 3/0
[Ci fib]
+17.7 +1.0 32 +19 +19 1024.2 1013.9
02 15.10 Ю 7 15 км 3/0
[Ci fib]
+16.6 +1.6 36 +15 +15 1023.8 1013.5
03 15.10 ЮВ 7 15 км 3/0
[Ci fib]
+16.1 +1.7 38 +15 +15 1024.0 1013.7
04 15.10 ЮВ 6 15 км 3/0
[Ci fib]
+16.6 +1.7 37 +16 +16 1023.9 1013.6
05 15.10 СВ 1 20 км ясно +7.9 -0.4 56 +8 +8 1024.4 1013.8
06 15.10 штиль 0 20 км ясно +9.0 +1.2 58 +9 +9 1024.8 1014.2 +7.0
07 15.10 СВ 2 20 км ясно +14.8 +2.4 43 +15 +16 1024.3 1014.2
08 15.10 СВ 2 25 км ясно +18.2 +2.6 35 +19 +23 1024.0 1014.0
09 15.10 С 2 25 км ясно +20.0 +2.0 30 +21 +26 комфорт 1023.8 1013.9
10 15.10 С 3 25 км ясно +21.9 +3.1 29 +22 +28 комфорт 1023.5 1013.6
11 15.10 ЮВ 4 30 км ясно +23.7 +1.4 23 +23 +27 комфорт 1022.8 1013.0
12 15.10 ЮВ 7-12
{17}
30 км ясно +23.5 +1.3 23 +23 +24 комфорт 1022.2 1012.4
13 15.10 ЮВ 8 30 км ясно +23.2 +1.4 24 +22 +23 комфорт 1021.9 1012.1
14 15.10 ЮВ 7 30 км ясно +22.8 +1.7 25 +22 +23 комфорт 1021.9 1012.1
15 15.10 ЮВ 6-12
{17}
30 км ясно +21.7 +1.2 26 +21 +22 комфорт 1022.0 1012.1
16 15.10 ЮВ 6 30 км ясно +20.5 +1.6 28 +20 +20 1022.0 1012.1
17 15.10 ЮВ 7 30 км ясно +20.0 +2.0 30 +20 +20 1022.1 1012.2
18 15.10 ЮВ 7
{19}
30 км ясно +19.6 +2.1 31 +19 +19 1022.4 1012.2 +24.3
19 15.10 ЮВ 9 30 км ясно +20.0 +2.0 30 +20 +20 1022.3 1012.1
20 15.10 ЮВ 5 20 км ясно +18.2 +2.9 36 +18 +18 1022.9 1012.7
21 15.10 ЮВ 6-11
{16}
20 км ясно +18.8 +2.3 33 +19 +19 1022.9 1012.7
22 15.10 ЮВ 5 20 км ясно +18.4 +2.1 34 +18 +18 1022.9 1012.7
23 15.10 ЮВ 7 20 км ясно +18.6 +2.4 34 +18 +18 1022.9 1012.7
00 16.10 ЮВ 8-16
{17}
20 км ясно +18.2 +2.6 35 +17 +17 1023.1 1012.9
01 16.10 ЮВ 7 20 км ясно +18.1 +2.5 35 +17 +17 1023.0 1012.8
03 16.10 ЮВ 6 20 км ясно +18.1 +1.7 33 +18 +18 1022.9 1012.7
05 16.10 С 1 20 км ясно +14.6 +1.9 42 +15 +15 1023.1 1012.7
04 16.10 ЮВ 6 20 км ясно +17.2 +1.6 35 +16 +16 1022.9 1012.6
06 16.10 СЗ 1 20 км ясно +14.4 +2.7 45 +15 +15 1023.7 1013.4 +13.3
07 16.10 З 1 20 км ясно +16.3 +2.7 40 +17 +19 1024.2 1013.9
08 16.10 В 2 20 км ясно +19.3 +3.8 36 +20 +24 1024.2 1014.0
09 16.10 ЮВ 6 20 км ясно +22.2 +2.6 28 +22 +24 комфорт 1023.6 1013.5
11 16.10 Ю 6 20 км ясно +24.0 +2.5 25 +23 +26 комфорт 1022.6 1012.6
10 16.10 ЮВ 6 20 км ясно +23.0 +2.5 26 +23 +25 комфорт 1023.2 1013.2
12 16.10 Ю 5 20 км ясно +24.5 +2.5 24 +24 +27 комфорт 1022.3 1012.4
13 16.10 Ю 6 20 км ясно +24.6 +2.3 23 +24 +25 комфорт 1022.0 1012.0
14 16.10 ЮВ 4 20 км ясно +24.0 +1.9 23 +23 +24 комфорт 1021.9 1011.9
15 16.10 ЮВ 5 20 км ясно +23.0 +1.7 25 +22 +23 комфорт 1021.9 1011.9
17 16.10 ЮВ 9 20 км 3/0
[Ci fib]
+20.8 +1.7 28 +21 +21 комфорт 1022.2 1012.1
16 16.10 ЮВ 8 20 км 3/0
[Ci fib]
+21.7 +1.4 26 +21 +21 комфорт 1022.1 1012.0
18 16.10 ЮВ 6 20 км ясно +19.6 +1.9 31 +20 +20 1022.4 1012.5 +25.2
19 16.10 ЮВ 6 20 км ясно +19.5 +2.3 32 +19 +19 1022.5 1012.6
20 16.10 штиль 0 20 км ясно +16.3 +2.7 40 +16 +16 1022.8 1012.8
21 16.10 штиль 0 20 км ясно +13.8 +2.0 45 +14 +14 1022.8 1012.7
23 16.10 штиль 0 20 км ясно +19.1 +2.6 33 +19 +19 1022.5 1012.6
22 16.10 штиль 0 20 км ясно +15.9 +2.3 40 +16 +16 1022.8 1012.7
00 17.10 С 1 20 км ясно +11.5 +1.8 51 +12 +12 1022.7 1012.5
01 17.10 СВ 2 20 км ясно +7.9 +2.0 66 +6 +6 1022.9 1012.3
02 17.10 штиль 0 20 км ясно +5.4 +1.2 74 +5 +5 1022.9 1012.2
03 17.10 СВ 1 20 км ясно +4.9 +1.4 78 +4 +4 1022.9 1012.3
05 17.10 штиль 0 15 км 1/0
[Ci fib]
+4.1 +0.8 79 +3 +3 1022.7 1012.2
04 17.10 штиль 0 15 км ясно +5.1 +1.2 76 +4 +4 1022.8 1012.3
06 17.10 штиль 0 15 км 8/0
[Cs]
+6.4 +2.4 76 +6 +6 1023.1 1012.5 +3.2
07 17.10 штиль 0 15 км 8/0
[Cs]
+12.3 +5.2 62 +12 +14 1023.0 1012.6
08 17.10 штиль 0 20 км 8/0
[Cs]
+18.7 +5.2 41 +19 +23 1022.6 1012.4
09 17.10 штиль 0 20 км 8/0
[Cs]
+21.3 +4.4 33 +22 +28 комфорт 1022.3 1012.2
11 17.10 С 1 25 км 6/0
[Cs]
+24.2 +4.2 27 +24 +31 комфорт 1020.8 1010.8
10 17.10 З 1 25 км 8/0
[Cs]
+23.0 +4.4 30 +23 +30 комфорт 1021.7 1011.7
12 17.10 СВ 2 20 км 5/0
[Ci fib]
+25.0 +2.9 24 +24 +29 комфорт 1019.9 1009.9
13 17.10 С 2 20 км 5/0
[Ci fib]
+25.1 +8.7 35 +26 +29 жарко 1019.3 1009.4
14 17.10 С 2 25 км 4/0
[Ci fib]
+25.0 +2.6 23 +24 +26 комфорт 1019.1 1009.2
15 17.10 СВ 2 25 км 4/0
[Ci fib]
+22.0 +4.2 31 +22 +23 комфорт 1019.2 1009.2
17 17.10 штиль 0 20 км 3/0
[Ci fib]
+14.3 +3.6 49 +14 +14 1020.0 1009.7
16 17.10 СВ 2 20 км 4/0
[Ci fib]
+18.4 +2.9 36 +19 +19 1019.5 1009.4
18 17.10 С 1 15 км ясно +13.6 +2.9 48 +14 +14 1020.0 1009.7 +25.5
19 17.10 СВ 2 15 км ясно +13.3 +3.8 53 +13 +13 1020.1 1009.8
20 17.10 СВ 2 15 км ясно +13.2 +4.4 55 +13 +13 1020.1 1009.7
21 17.10 С 1 15 км ясно +12.3 +4.8 60 +13 +13 1020.3 1009.9
23 17.10 штиль 0 15 км ясно +14.6 +6.5 58 +14 +14 1019.8 1009.6
22 17.10 С 1 15 км ясно +11.0 +4.7 65 +11 +11 1020.0 1009.6
00 18.10 В 2 15 км ясно +17.7 +7.1 50 +18 +18 1019.7 1009.6
01 18.10 штиль 0 15 км ясно +13.4 +6.4 63 +13 +13 1019.6 1009.2
02 18.10 С 2 15 км 5/0
[Ac trans]
+13.6 +6.6 63 +13 +13 1019.3 1009.0
03 18.10 СВ 1 15 км 6/0
[Ac trans]
+12.5 +7.1 70 +13 +13 1019.0 1008.7
05 18.10 В 1 15 км 4/0
[Ac trans]
+9.4 +6.0 79 +9 +9 1019.0 1008.5
04 18.10 СВ 1 15 км 3/0
[Ac trans]
+11.5 +6.5 71 +11 +11 1018.8 1008.4
06 18.10 штиль 0 10 км 3/0
[Ac trans]
+10.6 +6.8 77 +10 +10 1019.4 1009.0 +8.6
07 18.10 штиль 0 10 км 3/0
[Ac trans]
+13.7 +7.8 68 +13 +15 1019.5 1009.2
08 18.10 штиль 0 10 км 3/0
[Ac trans]
+19.0 +9.3 53 +20 +23 1019.2 1009.1
09 18.10 Ю 4 10 км 3/0
[Ac trans]
+21.8 +9.3 45 +23 +26 комфорт 1018.8 1008.8
11 18.10 штиль 0 20 км 3/0
[Ac trans]
+23.9 +9.0 39 +25 +32 комфорт 1017.6 1007.7
10 18.10 Ю 1 20 км 3/0
[Ac trans]
+23.3 +9.1 40 +25 +31 комфорт 1018.4 1008.4

 

Местоположение метеостанции Vrsac (Сербия): широта 45.15 долгота 21.32 высота над уровнем моря 85 м.

В архиве по умолчанию представлена погода в Vrsac за последнюю неделю. Архивные данные за месяц целиком и за предыдущие месяцы, начиная с января 2011 года, Вы можете получить, выбрав интересующий диапазон дат из раскрывающегося списка и нажав кнопку "Ввод!".


*Определитесь, кто Вы:
робот инопланетянин человек

Внимание! Время в таблицах - всемирное. Для получения местного времени необходимо прибавить поправку, которая в Vrsac равна 1 ч.

Смотрите также архив погоды в соседних городах и на ближайших метеорологических станциях:

Погода в Banatski Karlovac (Сербия) (25 км)
Погода в Banloc (Румыния) (30 км)
Погода в Oravita (Румыния) (31 км)
Погода в Veliko Gradiste (Сербия) (47 км)
Погода в Resita (Румыния) (50 км)
Погода в Moldova Veche (Румыния) (54 км)
Погода в Semenic (Румыния) (57 км)
Погода в Bozovici (Румыния) (59 км)
Погода в Timisoara (Румыния) (69 км)
Погода в Zrenjanin (Сербия) (75 км)

Пояснения к столбцам:

Ветер - указаны скорость ветра в м/с - средняя за 10 мин, порывы в срок и между сроками (в фигурных скобках) и направление, откуда дует ветер: С - северный, СВ - северо-восточный, В - восточный, ЮВ - юго-восточный, Ю - южный, ЮЗ - юго-западный, З - западный, СЗ - северо-западный.
Видимость - горизонтальная дальность видимости в метрах или километрах. При видимости от 1 до 10 км при отсутствии осадков обычно наблюдается дымка, при ухудшении видимости до 1 км и менее - туман. В сухую погоду видимость может ухудшаться дымом, пылью или мглою.
Явления - указаны атмосферные явления, наблюдавшиеся в срок или в последний час перед сроком; фигурными скобками обозначены явления, наблюдавшиеся между сроками (за 1-3 часа до срока); квадратными скобками обозначены град или гололедные отложения с указанием их диаметра в мм.
Облачность - указаны через наклонную черту общая и нижняя облачность в баллах и высота нижней границы облаков в метрах; квадратными скобками обозначены формы облаков: Ci - перистые, Cs - перисто-слоистые, Cc - перисто-кучевые, Ac - высококучевые, As - высокослоистые, Sc - слоисто-кучевые, Ns - слоисто-дождевые, Cu - кучевые, Cb - кучево-дождевые. Подробнее классификацию облаков см. в Атласе облаков (PDF).
T - Температура воздуха - температура, измеренная на высоте 2 м над землей.
Td - Температура точки росы - температура, при понижении до которой содержащийся в воздухе водяной пар достигнет насыщения.
f - Относительная влажность воздуха - влажноcть воздуха, измеренная на высоте 2 м над землей.
Te - Эффективная температура - температура, которую ощущает одетый по сезону человек в тени. Характеристика душности погоды. При расчете учитывается влияние влажности воздуха и скорости ветра на теплоощущения человека.
Tes - Эффективная температура на солнце - температура, которую ощущает человек, с поправкой на солнечный нагрев. Характеристика знойности погоды. Зависит от высоты солнца над горизонтом, облачности и скорости ветра. Ночью, в пасмурную погоду, а также при ветре 12 м/с и более поправка равна нулю.
P - Атмосферное давление - приведенное к уровню моря атмосферное давление.
Po - Атмосферное давление - измеренное на уровне метеостанции атмосферное давление.
Tmin - Минимальная температура - минимум температуры воздуха на высоте 2 м над землей.
Tmax - Максимальная температура - максимум температуры воздуха на высоте 2 м над землей.
R - Количество осадков - Количество выпавших осадков за период времени, мм. При наведении курсора мыши на число - период времени, за который выпало указанное количество осадков.
R24 - Количество осадков - Количество выпавших осадков за 24 часа, мм.
S - Снежный покров - Высота снежного покрова, см. При наведении курсора мыши на число - состояние снежного покрова и степень покрытия местности в баллах.